Content
SEND FEEDBACK

Daily
Averages
Monthly
Summary
United States of America

SULPHUR SPRINGS, TEXAS


Home > North America > United States > Texas
Elevation: 480 feet     Latitude: 33 09N     Longitude: 095 38W

WEATHER
 
SELECT A DAY
Number of Records: 236,268;   Date Range: 10/26/04 - 7/20/14
 
SHARE

PRINT THIS DATA

[ ← Previous Day ]
WEATHER ALMANAC - FEBRUARY 5, 2013
[ Next Day → ]
[ °C ]   °F
Weather ElementAverageHighLow
Temperature56.4 °F62.6 °F (12:15 pm)51.8 °F (12:35 am)
Dewpoint53.4 °F59 °F (11:35 am)50 °F (12:35 am)
Humidity90.6 %100 % (1:55 am)77 % (12:15 pm)
Barometer30.00 in30.05 in (9:15 pm)29.92 in (4:15 am)
Wind Speed4.8 mph8.1 mph (10:35 am)
Weather ElementAverage
Visibility3 mi
Wind DirectionENE (64.9 °)

Weather ElementTotal
Precipitation---
Heating Degree Days7.8 (Base 65)
Growing Degree Days7.2 (Base 50)
Averaged from 70 records on February 5, 2013
WEATHER CONDITIONS BREAKOUT
WIND DIRECTION BREAKOUT
WEATHER BY HOUR - FEBRUARY 5, 2013
[ °C ]   °F
Local TimeTemperatureDewpointHumidityBarometerVisibilityWind DirectionWind SpeedGust SpeedPrecipitationEventsConditions
12:35 AM51.8 °F50.0 °F94 %29.94 in0.2 miEast (80°)4.6 mphFogFog
12:55 AM51.8 °F50.0 °F94 %29.94 in0.8 miENE (70°)5.8 mphOvercast
1:15 AM51.8 °F50.0 °F94 %29.95 in0.8 miENE (70°)4.6 mphOvercast
1:35 AM51.8 °F50.0 °F94 %29.95 in1.0 miENE (60°)3.5 mphOvercast
1:55 AM51.8 °F51.8 °F100 %29.94 in1.0 miEast (90°)3.5 mphOvercast
2:15 AM51.8 °F51.8 °F100 %29.94 in0.8 miEast (90°)3.5 mphOvercast
2:35 AM51.8 °F51.8 °F100 %29.94 in0.5 miEast (80°)4.6 mphFogFog
2:55 AM51.8 °F51.8 °F100 %29.94 in0.5 miEast (80°)4.6 mphFogFog
3:15 AM51.8 °F51.8 °F100 %29.94 in0.2 miEast (90°)3.5 mphFogFog
3:35 AM51.8 °F51.8 °F100 %29.93 in0.2 miEast (90°)6.9 mphFogFog
3:55 AM51.8 °F51.8 °F100 %29.93 in0.2 miCalmFogFog
4:15 AM51.8 °F51.8 °F100 %29.92 in0.2 miEast (80°)3.5 mphFogFog
4:35 AM51.8 °F51.8 °F100 %29.93 in0.2 miCalmFogFog
4:55 AM51.8 °F51.8 °F100 %29.94 in0.2 miENE (60°)3.5 mphFogFog
5:15 AM51.8 °F51.8 °F100 %29.94 in0.2 miCalmFogFog
5:35 AM51.8 °F51.8 °F100 %29.95 in0.2 miENE (60°)4.6 mphFogFog
5:55 AM51.8 °F51.8 °F100 %29.95 in0.5 miENE (70°)5.8 mphFogFog
6:15 AM51.8 °F51.8 °F100 %29.96 in0.5 miEast (80°)3.5 mphFogFog
6:35 AM51.8 °F51.8 °F100 %29.97 in0.5 miENE (70°)4.6 mphFogFog
6:55 AM51.8 °F51.8 °F100 %29.98 in0.5 miENE (70°)4.6 mphFogFog
7:15 AM51.8 °F51.8 °F100 %29.99 in0.5 miEast (100°)4.6 mphFogFog
7:35 AM51.8 °F51.8 °F100 %29.99 in0.2 miENE (70°)3.5 mphFogFog
7:55 AM51.8 °F51.8 °F100 %30.00 in0.5 miNE (50°)5.8 mphFogFog
8:15 AM51.8 °F51.8 °F100 %30.02 in0.5 miENE (60°)5.8 mphFogFog
8:35 AM53.6 °F51.8 °F94 %30.02 in0.5 miENE (60°)5.8 mphFogFog
8:55 AM53.6 °F51.8 °F94 %30.03 in0.5 miEast (80°)5.8 mphFogFog
9:15 AM53.6 °F53.6 °F100 %30.03 in0.5 miEast (80°)5.8 mphFogFog
9:35 AM53.6 °F53.6 °F100 %30.03 in0.8 miEast (80°)6.9 mphOvercast
9:55 AM55.4 °F53.6 °F94 %30.04 in2.0 miEast (100°)6.9 mphOvercast
10:15 AM55.4 °F55.4 °F100 %30.04 in3.0 miEast (100°)5.8 mphOvercast
10:35 AM55.4 °F55.4 °F100 %30.04 in3.0 miEast (90°)8.1 mphOvercast
10:55 AM59.0 °F57.2 °F94 %30.04 in5.0 miEast (90°)8.1 mphOvercast
11:15 AM59.0 °F57.2 °F94 %30.04 in5.0 miEast (80°)8.1 mphOvercast
11:35 AM59.0 °F59.0 °F100 %30.04 in5.0 miEast (80°)8.1 mphOvercast
11:55 AM60.8 °F57.2 °F88 %30.04 in5.0 miEast (80°)6.9 mphOvercast
12:15 PM62.6 °F55.4 °F77 %30.03 in5.0 miEast (80°)8.1 mphHaze
12:35 PM62.6 °F55.4 °F77 %30.02 in5.0 miEast (80°)6.9 mphHaze
12:55 PM62.6 °F55.4 °F77 %30.02 in7.0 miEast (90°)5.8 mphOvercast
1:15 PM62.6 °F55.4 °F77 %30.01 in7.0 miEast (80°)5.8 mphOvercast
1:35 PM62.6 °F55.4 °F77 %30.01 in7.0 miEast (80°)5.8 mphOvercast
1:55 PM62.6 °F55.4 °F77 %30.00 in5.0 miEast (90°)5.8 mphHaze
2:15 PM62.6 °F55.4 °F77 %30.00 in7.0 miENE (60°)5.8 mphOvercast
2:35 PM62.6 °F55.4 °F77 %29.99 in5.0 miENE (70°)6.9 mphHaze
2:55 PM62.6 °F55.4 °F77 %29.99 in7.0 miENE (60°)6.9 mphOvercast
3:15 PM62.6 °F55.4 °F77 %29.99 in5.0 miEast (90°)5.8 mphHaze
3:35 PM62.6 °F55.4 °F77 %29.99 in5.0 miENE (70°)5.8 mphHaze
3:55 PM62.6 °F55.4 °F77 %29.99 in5.0 miEast (80°)8.1 mphHaze
4:15 PM62.6 °F55.4 °F77 %29.99 in5.0 miENE (60°)6.9 mphHaze
4:35 PM62.6 °F55.4 °F77 %29.99 in5.0 miNE (50°)6.9 mphHaze
4:55 PM62.6 °F55.4 °F77 %29.99 in5.0 miENE (60°)5.8 mphHaze
5:15 PM62.6 °F55.4 °F77 %30.00 in5.0 miNE (40°)4.6 mphHaze
5:35 PM60.8 °F55.4 °F82 %29.99 in7.0 miNNE (30°)6.9 mphMostly Cloudy
5:55 PM60.8 °F55.4 °F82 %30.00 in5.0 miNE (50°)6.9 mphHaze
6:15 PM60.8 °F53.6 °F77 %30.00 in7.0 miENE (60°)3.5 mphOvercast
6:35 PM60.8 °F53.6 °F77 %30.01 in7.0 miENE (70°)4.6 mphOvercast
6:55 PM59.0 °F53.6 °F82 %30.02 in7.0 miENE (60°)4.6 mphOvercast
7:15 PM59.0 °F53.6 °F82 %30.03 in7.0 miNE (50°)3.5 mphMostly Cloudy
7:35 PM59.0 °F53.6 °F82 %30.03 in5.0 miNE (40°)3.5 mphMostly Cloudy
7:55 PM59.0 °F53.6 °F82 %30.03 in5.0 miNE (50°)4.6 mphOvercast
8:15 PM57.2 °F53.6 °F88 %30.04 in5.0 miNE (50°)3.5 mphMostly Cloudy
8:35 PM57.2 °F53.6 °F88 %30.04 in5.0 miCalmMostly Cloudy
8:55 PM55.4 °F53.6 °F94 %30.04 in4.0 miCalmMostly Cloudy
9:15 PM55.4 °F53.6 °F94 %30.05 in4.0 miCalmMostly Cloudy
9:35 PM55.4 °F53.6 °F94 %30.05 in3.0 miENE (70°)3.5 mphMist
10:15 PM53.6 °F53.6 °F100 %30.05 in2.0 miEast (80°)3.5 mphMist
10:35 PM53.6 °F51.8 °F94 %30.05 in0.8 miEast (80°)5.8 mphMist
10:55 PM53.6 °F51.8 °F94 %30.05 in1.0 miENE (70°)3.5 mphMist
11:15 PM53.6 °F51.8 °F94 %30.05 in0.2 miCalmFogFog
11:35 PM53.6 °F51.8 °F94 %30.05 in0.2 miENE (70°)4.6 mphFogFog
11:55 PM53.6 °F51.8 °F94 %30.05 in1.2 miEast (80°)3.5 mphOvercast
Hourly data recorded from KSLR, located miles away from Sulphur Springs, Texas







STORIES FROM OUR PARTNERS